{"data":{"norad_id":66820,"epoch":"2026-05-25T03:17:46.188096Z","epoch_age_seconds":56480,"freshness":"FRESH","line1":"1 66820U 25279A   26145.13734014  .00002193  00000+0  17992-3 0  9993","line2":"2 66820  97.6996  93.9089 0010362  83.4825 276.7577 15.00224009 26169","mean_motion":15.00224009,"eccentricity":0.0010362,"inclination_deg":97.6996,"raan_deg":93.9089,"arg_perigee_deg":83.4825,"mean_anomaly_deg":276.7577,"bstar":0.00017992,"rev_number":2616,"period_min":95.985665564695,"perigee_km":559.00926009153,"apogee_km":573.40071442593,"semimajor_km":6944.3419872587,"source":"CELESTRAK","updated_at":"2026-05-25T13:38:06.517786Z"}}